Theta_e
341 342 342 345 341 341 341 343 344 344 347 347 346 345 344 345 353 355 357 358 358 357 358 357 359 357 356 359 358 357 358 356 358 356 355 356 355 354 355 353 351 348
342 342 344 345 345 343 341 343 344 346 347 348 347 346 346 346 350 355 356 358 358 357 358 358 358 358 355 358 358 357 356 355 355 360 356 356 356 355 354 353 352 351
344 342 342 342 344 344 343 342 343 345 348 349 348 347 347 349 348 353 355 357 357 357 358 359 357 358 358 357 357 357 357 356 354 357 356 355 356 355 355 355 354 352
345 343 343 342 344 345 345 344 342 343 346 349 348 349 349 351 350 350 353 361 356 357 357 359 357 358 358 358 358 356 356 356 356 356 356 355 356 355 355 353 354 353
346 344 344 344 343 345 347 345 343 342 342 348 350 349 350 350 351 350 351 356 356 356 356 358 358 358 358 358 358 356 357 356 357 355 355 354 355 355 354 354 352 353
348 346 346 345 344 343 345 346 345 344 343 343 348 351 349 350 351 351 351 352 356 356 356 357 358 358 358 358 358 356 357 356 357 356 354 354 355 356 356 355 354 353
348 348 346 346 345 344 344 346 347 347 345 344 347 350 351 348 349 349 352 353 354 356 355 356 357 358 359 358 358 356 356 357 356 356 355 354 355 355 356 355 354 352
349 349 348 347 346 345 344 344 347 349 348 347 346 348 352 350 348 348 349 353 354 354 355 356 356 357 359 358 358 357 356 358 357 356 355 354 354 354 355 356 354 352
350 349 348 347 346 345 345 345 345 348 351 349 348 348 352 352 351 349 348 349 353 354 354 355 356 357 358 359 358 357 356 357 357 356 355 354 353 354 355 355 354 353
349 349 348 347 346 346 345 345 345 346 351 351 350 350 350 353 353 351 350 348 350 353 354 354 355 356 358 359 358 358 357 356 356 356 356 355 354 354 354 354 354 353
349 350 349 348 347 346 346 346 346 346 348 352 352 351 351 351 353 353 351 349 349 352 353 354 355 356 356 358 358 359 358 357 356 356 356 356 355 355 360 354 354 353
350 350 349 349 348 347 347 347 347 347 347 351 353 352 352 351 351 353 353 350 350 351 353 354 355 356 356 356 358 358 358 357 356 356 356 356 356 355 356 356 354 354
351 350 350 350 350 349 349 348 348 349 349 349 353 353 352 351 350 351 353 352 351 351 352 354 354 355 356 356 356 357 357 356 356 356 355 355 355 356 356 356 356 356
353 352 351 351 351 351 350 350 350 350 350 351 353 352 352 352 351 350 351 353 353 352 352 353 354 354 355 355 355 355 356 356 356 355 355 354 354 354 356 356 356 356
355 354 354 352 352 351 350 350 350 351 352 352 353 353 354 353 353 351 350 351 353 353 353 354 353 354 354 355 354 354 355 355 356 355 355 354 354 353 354 355 356 357
356 355 354 353 352 351 350 350 350 351 352 352 353 353 353 353 353 352 350 350 351 353 353 354 354 354 352 344 347 354 354 355 356 355 355 354 354 353 353 354 355 356
356 355 355 353 352 351 351 350 350 351 351 352 353 354 354 353 353 351 351 350 350 352 353 354 354 354 343 336 337 342 352 353 354 354 355 354 354 353 352 353 354 355
356 355 354 354 353 351 351 350 350 350 351 351 353 353 354 354 352 351 351 350 350 351 353 354 354 347 335 333 335 335 343 354 353 353 354 354 354 353 353 353 353 354
356 355 354 354 353 352 351 351 350 350 350 351 352 353 354 353 352 351 350 351 350 349 351 353 354 344 334 331 332 333 334 346 353 352 352 353 353 353 353 353 352 352
357 355 354 354 353 353 352 351 350 350 350 351 353 354 353 352 352 351 350 350 350 350 350 352 353 344 332 328 329 330 332 338 352 352 352 352 353 353 353 353 353 352
357 356 355 354 353 353 352 351 350 350 351 351 352 353 353 352 352 350 350 350 351 351 350 351 352 339 328 326 325 326 329 335 351 353 352 351 352 353 353 353 353 353
357 356 355 354 353 353 352 351 351 350 350 352 352 353 354 354 353 352 350 350 350 351 351 350 352 333 327 325 324 324 328 341 348 351 351 351 350 352 353 353 353 353
358 357 355 354 354 352 352 351 351 351 351 353 352 352 353 353 353 352 352 350 350 351 351 351 352 338 325 322 322 323 327 344 348 350 351 351 350 350 352 353 354 353
359 358 356 355 354 352 352 352 353 353 352 353 352 352 352 353 354 353 353 352 351 351 351 351 352 342 322 321 321 321 331 345 348 349 350 351 351 351 351 351 354 362
360 358 357 356 354 354 353 353 353 353 353 353 353 353 353 354 355 354 353 352 352 352 353 351 352 344 321 321 320 319 330 347 349 349 349 350 351 351 351 352 351 358
360 359 358 357 355 355 355 354 355 354 353 353 353 353 353 353 354 354 353 353 352 352 353 353 353 354 338 319 319 318 322 347 350 349 349 350 351 351 351 351 352 353
Wind_Speed
11 9 10 9 10 9 9 9 8 10 10 9 9 9 10 9 8 9 9 8 7 7 7 7 6 6 5 5 6 6 6 6 6 5 5 5 4 4 3 3 3 3
13 11 10 9 8 8 8 9 9 9 10 10 10 9 8 7 8 9 9 9 8 8 7 7 6 6 5 5 5 7 6 5 6 4 5 5 5 4 4 4 4 3
13 12 11 11 11 12 12 10 9 8 9 10 9 8 8 7 8 8 9 9 9 9 8 7 7 6 6 6 5 6 7 6 6 5 5 6 5 5 5 5 3 4
15 14 13 13 12 12 12 10 8 7 6 7 9 9 9 8 8 9 8 9 9 9 8 7 8 7 6 6 6 6 6 6 6 5 6 4 5 6 6 4 4 3
16 14 13 12 11 11 10 11 12 10 9 9 9 8 8 8 8 8 8 9 8 9 8 8 7 8 7 6 6 6 6 6 5 4 5 6 5 5 6 4 4 5
14 13 13 13 12 11 11 12 12 12 11 10 10 8 9 9 9 10 10 10 9 9 9 9 9 8 8 7 6 7 6 6 6 5 5 5 5 5 5 5 5 5
15 14 14 13 12 12 12 13 12 12 12 12 10 10 9 9 9 9 10 10 10 9 10 10 9 9 8 7 7 7 6 6 6 6 6 6 4 5 5 5 5 5
16 15 14 13 13 13 13 12 11 11 11 10 11 11 10 11 11 10 8 9 9 10 10 10 10 10 9 8 8 8 7 6 6 7 7 6 5 5 5 5 4 5
16 15 14 15 15 13 14 13 12 12 11 11 11 11 10 11 11 11 10 9 9 9 10 10 10 10 9 9 9 9 9 8 8 8 8 7 7 7 6 5 4 5
16 15 16 15 15 14 14 14 12 11 10 11 12 11 11 11 11 11 11 10 10 10 10 10 10 9 9 9 10 10 9 9 9 8 8 8 8 7 7 6 6 5
17 16 16 17 16 14 15 15 14 12 11 12 12 12 11 11 10 10 11 11 11 11 10 11 11 11 10 10 9 9 10 9 9 8 8 9 9 8 7 7 7 7
17 16 17 18 17 16 16 15 14 13 12 12 12 13 12 11 12 11 11 12 11 11 11 11 11 11 11 11 11 10 9 9 9 8 9 8 8 8 8 7 7 8
17 17 16 16 16 16 14 14 14 14 14 13 12 13 13 12 12 12 11 11 12 12 12 12 11 11 10 10 10 9 10 9 9 9 9 8 8 8 8 8 8 7
16 15 15 15 14 14 14 14 14 14 14 13 12 13 14 13 13 13 12 11 12 12 12 12 11 11 10 10 9 10 9 9 9 9 9 9 8 8 8 8 8 8
14 13 13 13 14 13 14 14 14 14 13 13 13 13 12 13 13 13 12 12 11 12 12 11 11 11 10 10 10 10 9 10 10 10 10 9 9 9 8 8 8 8
13 13 12 13 13 14 14 14 13 13 13 13 14 14 13 13 12 12 13 13 12 12 11 11 10 9 12 17 15 11 11 10 9 10 10 9 9 9 8 8 9 9
13 13 12 13 13 13 13 14 14 13 13 13 13 13 14 13 12 13 13 12 13 12 12 11 10 10 17 17 18 18 13 10 10 10 9 10 9 9 9 9 9 9
13 13 13 14 13 14 14 13 13 13 13 13 13 13 13 12 13 13 12 12 12 12 13 12 11 14 17 17 18 18 16 12 10 9 9 9 9 10 9 9 9 9
14 14 14 14 14 14 13 13 13 14 14 13 14 13 11 13 14 13 12 12 12 13 13 13 12 16 17 17 18 18 19 15 9 10 9 10 10 10 10 9 8 8
15 15 15 15 14 13 13 13 14 15 14 13 12 12 13 13 13 14 13 12 13 13 13 12 13 15 17 18 18 19 19 16 11 10 10 10 10 10 9 9 9 9
15 15 15 15 14 14 13 14 14 14 14 13 12 13 13 13 14 14 13 13 13 13 12 13 12 17 17 18 19 19 19 15 12 10 9 8 9 8 9 10 9 9
15 15 15 14 14 14 15 15 14 14 15 13 12 12 12 11 12 12 13 13 12 13 12 13 13 18 18 19 19 19 19 12 11 11 10 9 9 8 9 9 9 9
15 15 15 15 14 15 16 15 15 14 13 12 13 13 12 13 13 13 12 13 13 13 14 13 13 15 18 19 19 20 14 10 10 10 10 11 11 10 10 10 9 10
15 15 15 15 15 16 16 15 14 12 14 12 13 13 13 13 12 12 12 12 13 14 14 13 13 14 19 19 20 19 16 12 10 10 11 11 12 11 9 8 10 16
15 15 15 15 16 16 15 15 15 14 12 12 13 12 13 11 11 11 12 12 13 14 16 16 13 13 17 19 21 20 17 11 11 10 11 11 11 11 9 9 9 12
14 15 16 16 17 15 14 14 13 12 13 14 13 12 11 11 11 11 13 12 12 13 13 14 14 12 13 20 20 20 21 14 10 10 11 13 12 11 10 9 9 9
Wind_Direction
195 189 194 195 194 193 188 182 182 184 191 189 193 199 197 201 195 194 196 192 192 191 201 207 208 213 194 191 193 192 190 202 198 193 191 192 215 223 231 246 227 215
202 196 195 195 196 196 195 191 183 183 189 191 197 196 199 188 197 192 191 193 193 194 196 204 206 209 190 186 183 187 195 196 201 197 191 198 221 218 227 235 232 235
200 201 197 196 197 198 198 197 190 187 185 194 193 194 193 192 192 195 193 190 192 195 194 198 203 207 192 187 174 178 187 194 204 201 187 204 217 215 227 232 238 219
202 202 201 202 201 199 199 196 198 194 188 182 192 195 192 192 191 193 196 194 192 196 195 193 198 200 190 185 179 182 185 190 200 190 193 206 213 215 226 225 239 248
201 203 205 206 204 202 198 200 201 200 197 195 192 192 192 190 191 196 195 198 195 197 194 196 195 198 192 186 184 187 192 198 199 182 188 200 217 215 229 220 237 250
204 205 206 206 205 199 201 204 204 201 203 201 199 192 195 193 193 196 197 198 198 197 197 197 196 199 194 192 189 195 193 199 208 194 194 201 212 218 228 219 223 241
201 202 207 209 209 205 205 206 205 204 203 204 198 200 196 197 198 198 199 202 199 199 199 197 198 198 198 192 193 199 201 202 204 205 207 212 205 218 229 222 225 235
200 201 204 206 209 209 209 207 206 205 204 203 201 204 198 202 204 204 201 201 203 203 201 201 200 200 198 193 196 200 204 201 204 205 210 217 204 217 218 224 218 232
198 200 202 205 208 210 212 210 208 206 202 202 205 205 203 204 205 207 206 201 205 205 203 202 200 201 197 195 200 201 202 204 203 202 208 211 210 214 212 211 218 229
199 201 201 204 208 211 213 213 211 209 204 205 207 206 204 206 206 207 207 204 206 206 204 203 201 200 198 199 202 202 204 206 202 202 207 211 213 215 213 206 213 221
201 199 202 204 208 210 213 212 212 211 207 207 207 210 208 204 208 206 206 204 206 205 204 205 203 199 198 201 203 204 206 207 205 203 206 210 214 217 214 209 213 217
203 202 203 204 206 209 211 211 211 211 209 209 208 209 209 207 205 205 204 204 205 205 204 206 205 201 201 201 202 203 205 208 209 209 209 210 214 217 219 212 213 219
204 204 204 204 206 208 209 210 211 210 210 210 207 209 208 209 208 206 206 204 205 205 205 204 204 203 204 205 203 202 204 207 210 212 212 213 216 217 218 217 216 218
205 205 205 206 206 207 209 210 210 210 210 210 207 209 210 209 208 207 207 205 205 206 206 204 203 204 205 206 204 202 202 209 211 211 213 215 218 218 218 221 221 220
201 204 207 207 207 207 209 211 211 211 210 209 208 210 211 211 209 207 207 207 208 208 208 206 205 206 204 203 203 204 203 207 210 212 212 215 218 219 219 221 225 227
199 200 203 205 206 208 209 210 212 211 210 210 210 210 211 210 210 208 207 206 206 208 208 208 209 208 207 202 200 201 202 205 206 211 212 213 215 218 222 221 223 225
198 201 201 204 206 208 208 209 211 211 212 212 211 210 211 209 209 209 208 207 205 205 207 209 211 212 208 201 202 202 200 203 203 210 212 213 214 215 219 219 223 224
197 199 202 205 205 207 207 208 209 211 213 212 211 211 210 209 210 210 209 208 206 205 206 208 212 214 208 203 202 203 202 202 205 207 208 212 214 216 220 220 223 224
193 196 200 203 205 206 206 206 207 211 213 212 212 211 207 209 211 209 210 208 206 205 208 208 213 213 208 203 203 204 206 206 208 208 207 211 213 215 218 218 220 223
192 194 198 201 201 204 204 206 207 210 212 213 213 209 209 210 210 211 210 208 207 206 207 209 212 214 204 201 202 203 206 205 216 210 212 215 215 215 217 218 217 217
192 194 196 197 198 199 203 207 208 210 210 211 211 210 209 208 208 210 210 209 209 207 207 210 215 211 200 200 201 202 205 201 216 217 216 218 219 219 220 219 218 218
191 193 194 195 197 198 202 206 208 208 209 209 211 213 212 211 212 211 209 210 209 208 207 212 216 207 198 198 199 202 199 199 212 218 220 221 221 219 220 222 220 216
193 193 193 195 196 199 203 205 205 207 209 207 212 214 211 210 210 209 209 207 208 208 210 213 217 206 198 197 198 199 187 201 208 216 222 225 227 223 222 222 219 217
195 194 194 194 196 201 203 204 204 205 207 204 210 212 215 213 208 211 210 208 207 209 209 212 217 205 196 198 198 193 185 196 204 210 221 225 232 229 225 227 224 221
197 196 195 195 199 203 201 201 201 203 202 203 210 213 218 213 209 211 211 210 209 209 208 210 216 208 194 198 199 192 190 202 202 209 219 227 229 233 227 225 232 232
199 197 197 197 200 202 200 202 199 198 201 203 207 210 213 213 212 211 212 212 208 208 209 210 213 212 194 199 198 194 192 198 203 204 218 226 226 227 229 225 228 232